DECAYED

STARLINK-2340, 47882 (Decayed)

Orbit data source: Space-Track

STARLINK-2340, 47882 was a payload satellite owned by SpaceX/Seattle (US) in LEO that was launched on Sun, 14 Mar 2021 UTC via an FALCON 9 launch vehicle from the Air Force Eastern Test Range (AFETR). Payload-class satellites include a variety of spacecraft equipped with specific instruments for various scientific and technological missions. These include communications satellites like Starlink; space stations such as the ISS; scientific satellites like the Hubble; Earth observation satellites from companies like Planet Labs, Umbra, and HawkEye 360; GPS; miniature CubeSats for education and research; and military/defense satellites.

Not visible in the next 10 days
Identifier
47882, 2021-021Y
Orbit
Decayed
Country
Flag of USUS
Related business
Manufacturer
SpaceX/Seattle
Mission
Decayed Commercial Communications
Bus & Motor
STARLINK, Unknown motor
Mass
260 kg wet, ~248 kg dry
Launch date (UTC)
2021-03-14 (5 years ago)
Launch vehicle
FALCON 9
Launch site
Air Force Eastern Test Range (AFETR)
Object type
Payload
Rocket body
Debris
Shape & HBR
Box + 1 Pan, 10.1 m
Radar Cross Section
13.562 m², Large (>1 m²)

Expand to show TLE details & history
Last TLE update: 6 months ago

TLE from 6 months ago
0 STARLINK-2340
1 47882U 21021Y   25346.99769527  .12719400  11834-4  50432-2 0  9990
2 47882  53.0135 196.2277 0007113 237.1020 122.9335 16.22920402264767
Epoch: 2025-12-12T23:56Z
TLE epoch observation values (Epoch: 2025-12-12T23:56:40.871Z)
Latitude
-0°
Longitude
115.12611°
Altitude
215.104 km
Speed
7.777 km/s
True Right ascension
13h 04m 54s
True Declination
0° 00' 00"
Sunlit
Object was in daylight at epoch
Visualization orbit readout
Latitude
Unknown
Longitude
Unknown
Altitude
Unknown
Speed
Unknown
Apparent Right ascension
Unknown
Apparent Declination
Unknown
Sunlit
N/A
Visualization observer readout
Local Sidereal Time
21:28:10
Azimuth
Unknown
Elevation
Unknown
Doppler factor
Unknown
Orbital elements
Apogee altitude
216.613 km
Perigee altitude
207.238 km
Semi-major axis
6,590.063 km
Eccentricity
0.00071
Inclination
53.0135°
RAAN
196.2277°
Arg. of periapsis
237.102°
True anomaly
123.00188°
Mean anomaly
122.9335°
Eccentric anomaly
122.96769°
Mean motion
4.05704 °/min
Orbital period
88.73 mins
BSTAR
0.0050432
Loading maneuver chart data...
Computing Atmospheric mass density...

Documentation

Showing up to 5 results
|